Weather History for Lumberton, NC

Change the Weather History Date:

Tuesday, March 19, 2013

  Actual Average Record
Temperature  
Mean Temperature 57 °F 55 °F  
Max Temperature 69 °F 67 °F 80 °F (2012)
Min Temperature 45 °F 43 °F 33 °F (2006)
Degree Days  
Heating Degree Days 8 10  
Month to date heating degree days 303 242  
Since 1 July heating degree days 2377 2472  
Cooling Degree Days 0 0  
Month to date cooling degree days 1 0  
Year to date cooling degree days 5 3  
Growing Degree Days 6 (Base 50)    
Moisture  
Dew Point 42 °F    
Average Humidity 62    
Maximum Humidity 100    
Minimum Humidity 24    
Precipitation  
Precipitation T in 0.11 in 0.18 in (2008)
Month to date precipitation 0.81 2.06  
Year to date precipitation 6.38 7.93  
Sea Level Pressure  
Sea Level Pressure 29.88 in    
Wind  
Wind Speed 8 mph (NW)    
Max Wind Speed 18 mph    
Max Gust Speed 23 mph    
Visibility 6 miles    
Events Rain    
T = Trace of Precipitation, MM = Missing Value Source: NWS Daily Summary

Daily Weather History Graph

Daily Weather History Graph

Search for Another Location

Airport:

Trip Planner

Search our weather history database for the weather conditions in past years. The results will help you decide how hot, cold, wet, or windy it might be!

Date:

Astronomy

Mar. 19, 2013 Rise Set
Actual Time 7:20 AM EDT 7:27 PM EDT
Civil Twilight 6:55 AM EDT 7:52 PM EDT
Nautical Twilight 6:26 AM EDT 8:21 PM EDT
Astronomical Twilight 5:56 AM EDT 8:51 PM EDT
Moon 12:23 PM EDT (3/19) 1:59 AM EDT (3/19)
Length of Visible Light 12h 56m
Length of Day
12h 06m
Waxing Crescent, 49% of the Moon is Illuminated
Mar 19
Waxing Crescent
Mar 19
First Quarter
Mar 27
Full
Apr 3
Last Quarter
Apr 10
New

Hourly Weather History & Observations

Time (EDT) Temp. Windchill Dew Point Humidity Pressure Visibility Wind Dir Wind Speed Gust Speed Precip Events Conditions
12:02 AM 46.4 °F 45.2 °F 44.6 °F 93% 29.94 in 2.5 mi Variable 3.5 mph - 0.03 in Rain Rain
12:38 AM 46.4 °F 42.9 °F 44.6 °F 93% 29.86 in 3.0 mi NE 6.9 mph 19.6 mph 0.19 in Rain Rain
12:52 AM 46.4 °F 41.9 °F 44.6 °F 93% 29.85 in 5.0 mi North 9.2 mph - 0.21 in Rain Light Rain
12:54 AM 46.0 °F 39.9 °F 45.0 °F 96% 29.84 in 5.0 mi NNE 13.8 mph - 0.21 in Rain Light Rain
1:14 AM 46.4 °F 41.1 °F 44.6 °F 93% 29.79 in 6.0 mi East 11.5 mph - 0.00 in   Overcast
1:43 AM 46.4 °F 41.5 °F 44.6 °F 93% 29.82 in 6.0 mi North 10.4 mph - 0.00 in   Overcast
1:54 AM 46.0 °F 42.5 °F 45.0 °F 96% 29.82 in 6.0 mi North 6.9 mph - 0.00 in   Overcast
2:14 AM 46.4 °F 44.3 °F 44.6 °F 93% 29.82 in 6.0 mi NNW 4.6 mph - N/A   Mostly Cloudy
2:21 AM 46.4 °F 45.2 °F 44.6 °F 93% 29.82 in 6.0 mi NNW 3.5 mph - N/A   Partly Cloudy
2:54 AM 46.0 °F 42.5 °F 44.1 °F 93% 29.82 in 6.0 mi NNW 6.9 mph - N/A   Mostly Cloudy
3:42 AM 46.4 °F 44.3 °F 44.6 °F 93% 29.82 in 6.0 mi NW 4.6 mph - N/A   Overcast
3:54 AM 46.0 °F 44.8 °F 45.0 °F 96% 29.82 in 6.0 mi WNW 3.5 mph - N/A   Overcast
4:10 AM 46.4 °F - 44.6 °F 93% 29.81 in 6.0 mi Calm Calm - N/A   Overcast
4:54 AM 46.0 °F 43.9 °F 45.0 °F 96% 29.83 in 6.0 mi WNW 4.6 mph - N/A   Overcast
5:54 AM 45.0 °F 42.6 °F 44.1 °F 97% 29.85 in 4.0 mi NW 4.6 mph - N/A   Overcast
6:54 AM 45.0 °F 42.6 °F 44.1 °F 97% 29.86 in 2.5 mi WNW 4.6 mph - N/A   Overcast
7:09 AM 44.6 °F 41.4 °F 44.6 °F 100% 29.87 in 1.8 mi WNW 5.8 mph - N/A   Overcast
7:20 AM 44.6 °F 40.7 °F 44.6 °F 100% 29.89 in 2.0 mi WNW 6.9 mph - N/A   Overcast
7:42 AM 44.6 °F 40.7 °F 44.6 °F 100% 29.90 in 1.5 mi West 6.9 mph - N/A   Overcast
7:52 AM 44.6 °F 41.4 °F 44.6 °F 100% 29.90 in 1.0 mi West 5.8 mph - N/A   Overcast
7:54 AM 45.0 °F 41.2 °F 45.0 °F 100% 29.90 in 1.0 mi West 6.9 mph - N/A   Overcast
8:14 AM 44.6 °F 40.7 °F 44.6 °F 100% 29.89 in 0.8 mi SW 6.9 mph - N/A   Overcast
8:37 AM 46.4 °F 44.3 °F 44.6 °F 93% 29.90 in 1.0 mi WSW 4.6 mph - N/A   Overcast
8:54 AM 46.0 °F 43.1 °F 46.0 °F 100% 29.90 in 1.0 mi West 5.8 mph - N/A   Overcast
9:01 AM 46.4 °F 45.2 °F 46.4 °F 100% 29.90 in 1.8 mi West 3.5 mph - N/A   Overcast
9:06 AM 46.4 °F 43.5 °F 46.4 °F 100% 29.90 in 3.0 mi West 5.8 mph - N/A   Overcast
9:54 AM 48.0 °F - 46.0 °F 93% 29.91 in 8.0 mi WNW 9.2 mph - N/A   Overcast
10:42 AM 50.0 °F - 46.4 °F 87% 29.92 in 10.0 mi WNW 12.7 mph - N/A   Overcast
10:54 AM 51.1 °F - 48.0 °F 89% 29.93 in 10.0 mi WNW 11.5 mph - N/A   Overcast
11:50 AM 55.4 °F - 48.2 °F 77% 29.93 in 10.0 mi WNW 10.4 mph - N/A   Partly Cloudy
11:54 AM 55.0 °F - 48.9 °F 80% 29.93 in 10.0 mi WNW 9.2 mph - N/A   Partly Cloudy
12:54 PM 61.0 °F - 46.0 °F 58% 29.92 in 10.0 mi NNW 11.5 mph - N/A   Clear
1:54 PM 64.0 °F - 45.0 °F 50% 29.89 in 10.0 mi West 9.2 mph - N/A   Clear
2:54 PM 66.9 °F - 41.0 °F 39% 29.88 in 10.0 mi West 12.7 mph 19.6 mph N/A   Clear
3:54 PM 68.0 °F - 37.0 °F 32% 29.86 in 10.0 mi West 19.6 mph 23.0 mph N/A   Clear
4:54 PM 68.0 °F - 36.0 °F 31% 29.87 in 10.0 mi West 11.5 mph - N/A   Clear
5:54 PM 68.0 °F - 30.9 °F 25% 29.89 in 10.0 mi NW 13.8 mph 21.9 mph N/A   Clear
6:54 PM 64.9 °F - 28.0 °F 25% 29.91 in 10.0 mi WNW 10.4 mph - N/A   Clear
7:54 PM 60.1 °F - 25.0 °F 26% 29.93 in 10.0 mi NW 10.4 mph - N/A   Clear
8:54 PM 57.0 °F - 26.1 °F 30% 29.96 in 10.0 mi NW 4.6 mph - N/A   Clear
9:54 PM 48.0 °F - 32.0 °F 54% 29.98 in 10.0 mi WNW 4.6 mph - N/A   Clear
10:54 PM 46.9 °F - 32.0 °F 56% 30.00 in 10.0 mi Calm Calm - N/A   Clear
11:54 PM 50.0 °F - 28.0 °F 43% 30.01 in 10.0 mi NNW 6.9 mph - N/A   Clear